Dauntless Aviation
Greetings, Guest! To participate, [sign up for a free account] or [log in]
Airports Europe Czech Republic
LKPO
PRV

Prerov

Prerov, CZECH REPUBLIC

Airport Info
Edit

Location

Latitude / Longitude: 49°25'32"N / 17°24'16"E
  49°25.548'N / 17°24.282'E
  49.4258 / 17.4047

Nearby radio navigation aids

CK PREROV NDB. 63.6° 2.8nm from CK to field.

Runway Information

Runway 06 /24

Dimensions: 8202 x 196 ft.
Surface: ASP
 
Runway 06
Runway 24
Latitude: 49.421419 49.430439
Longitude: 17.389275 17.420478
Elevation: 663 ft. 663 ft.
Runway true heading: 64.6 244.6
 

Instrument Procedures

  Aerodrome Chart

IAPs (Instrument Approach Procedures)

  ILS/DME Rwy 06
  NDB/DME (GPS) or PAR Rwy 06
  NDB (GPS) or PAR Rwy 06
  POLOM 3A

Departure Procedures

  Instrument Departure Chart HLV 1A - 2Z
  Instrument Departure Chart LUTIM 2A - 2Z
  Instrument Departure Chart MORKO 2Z
  Instrument Departure Chart POLOM 3A
Satellite photo at:
Airport distance calculator
From:
Weather Reports

METAR

LKMT
31.3nm NE
LKMT 301600Z 22010KT 9999 SCT031 21/14 Q1017 NOSIG
LKTB
33.3nm SW
LKTB 301600Z 20008KT 9999 FEW024 20/15 Q1017 NOSIG

TAF

LKMT
31.3nm NE
TAF LKMT 301100Z 3012/3118 23010KT 9999 SCT030 TEMPO 3012/3018 23014G24KT 6000 SHRA SCT030CB BECMG 3022/3024 4000 BR NSC TEMPO 3100/3106 1200 MIFG BKN003 PROB30 TEMPO 3103/3106 0400 FG BKN001 PROB30 TEMPO 3108/3113 23014G24KT 6000 SHRA SCT030CB BECMG 3113/3115 7000 RA BKN025 TEMPO 3115/3118 4000 RA BR BKN017
LKTB
33.3nm SW
TAF LKTB 301100Z 3012/3118 20005KT 9999 SCT025 TEMPO 3012/3018 28014G24KT 4000 SHRA SCT025CB BECMG 3022/3024 4000 BR NSC TEMPO 3100/3106 1200 MIFG BKN003 PROB30 TEMPO 3103/3106 0400 FG BKN001 TEMPO 3108/3112 28014G24KT 6000 SHRA SCT030CB BECMG 3112/3114 7000 RA BKN030 TEMPO 3115/3118 30012KT 4000 RA BR BKN017
Safelog

 

Dauntless Aviation

© 2007-2014 Dauntless Aviation, all rights reserved
Information provided via PilotNav comes from a variety of official and unofficial data sources. As errors are possible, do not use PilotNav for primary flight planning purposes. Verify any information that you receive via PilotNav with current and canonical charts and other official documents. The material in this database is subject to database copyrights held by Dauntless Aviation and may not be copied without the express permission of Dauntless Aviation - licenses for use of part of all of this data are available for purchase; enquire via the Dauntless Aviation helpdesk. A number of mechanisms and markers exist in the database to protect against and identify infringement / copyright. Automated queries against this website are stictly prohibited, and all activity is logged and analyzed.